• en Belgique
  • Liste des pays
  • À 7 jours
  • Température de l'eau
  • Carte satellitaire
  • Carte météo
  • Widgets météo
  • user-avatar
    Se connecter

    Météo par heure à Prezyce

    Ce jour, 26 Septembre, Mercredi

    Heure Température Précipitation Vent Pression Humidité
    00:00 +6°C° 0 mm 2 m/s 768 mmHg 72%
    01:00 +6°C° 0 mm 2 m/s 769 mmHg 71%
    02:00 +6°C° 0 mm 2 m/s 768 mmHg 71%
    03:00 +5°C° 0 mm 2 m/s 768 mmHg 72%
    04:00 +5°C° 0 mm 2 m/s 768 mmHg 72%
    05:00 +6°C° 0 mm 2 m/s 768 mmHg 71%
    06:00 +6°C° 0 mm 2 m/s 768 mmHg 69%
    07:00 +5°C° 0 mm 3 m/s 768 mmHg 65%
    08:00 +7°C° 0 mm 4 m/s 768 mmHg 59%
    09:00 +10°C° 0 mm 4 m/s 767 mmHg 53%
    10:00 +12°C° 0 mm 4 m/s 767 mmHg 47%
    11:00 +13°C° 0 mm 4 m/s 766 mmHg 44%
    12:00 +14°C° 0 mm 5 m/s 766 mmHg 41%
    13:00 +15°C° 0 mm 5 m/s 765 mmHg 38%
    14:00 +15°C° 0 mm 4 m/s 764 mmHg 40%
    15:00 +15°C° 0 mm 4 m/s 764 mmHg 43%
    16:00 +16°C° 0 mm 3 m/s 763 mmHg 45%
    17:00 +14°C° 0 mm 4 m/s 763 mmHg 47%
    18:00 +13°C° 0 mm 4 m/s 762 mmHg 48%
    19:00 +12°C° 0 mm 4 m/s 762 mmHg 50%
    20:00 +12°C° 0 mm 4 m/s 762 mmHg 49%
    21:00 +12°C° 0 mm 5 m/s 762 mmHg 48%
    22:00 +12°C° 0 mm 5 m/s 762 mmHg 48%
    23:00 +12°C° 0.1 mm 5 m/s 762 mmHg 51%

    Demain, 27 Septembre, Jeudi

    Heure Température Précipitation Vent Pression Humidité
    00:00 +12°C° 0.1 mm 5 m/s 762 mmHg 53%
    01:00 +12°C° 0.1 mm 5 m/s 762 mmHg 56%
    02:00 +12°C° 0.1 mm 5 m/s 762 mmHg 58%
    03:00 +12°C° 0.1 mm 5 m/s 762 mmHg 59%
    04:00 +12°C° 0.1 mm 5 m/s 761 mmHg 61%
    05:00 +12°C° 0 mm 5 m/s 761 mmHg 62%
    06:00 +12°C° 0 mm 5 m/s 761 mmHg 64%
    07:00 +12°C° 0 mm 5 m/s 762 mmHg 65%
    08:00 +14°C° 0 mm 5 m/s 762 mmHg 64%
    09:00 +15°C° 0 mm 5 m/s 762 mmHg 63%
    10:00 +17°C° 0 mm 5 m/s 762 mmHg 62%
    11:00 +19°C° 0 mm 4 m/s 761 mmHg 61%
    12:00 +20°C° 0 mm 4 m/s 761 mmHg 60%
    13:00 +21°C° 0 mm 4 m/s 761 mmHg 59%
    14:00 +21°C° 0 mm 4 m/s 760 mmHg 60%
    15:00 +22°C° 0 mm 3 m/s 760 mmHg 60%
    16:00 +22°C° 0 mm 3 m/s 759 mmHg 61%
    17:00 +20°C° 0 mm 3 m/s 759 mmHg 66%
    18:00 +19°C° 0 mm 3 m/s 758 mmHg 72%
    19:00 +17°C° 0 mm 2 m/s 758 mmHg 77%
    20:00 +17°C° 0 mm 3 m/s 758 mmHg 76%
    21:00 +16°C° 0 mm 3 m/s 757 mmHg 75%
    22:00 +16°C° 0 mm 3 m/s 757 mmHg 75%
    23:00 +16°C° 0 mm 3 m/s 757 mmHg 73%

    Après-demain, 28 Septembre, Vendredi

    Heure Température Précipitation Vent Pression Humidité
    00:00 +16°C° 0 mm 3 m/s 756 mmHg 72%
    01:00 +16°C° 0 mm 3 m/s 755 mmHg 71%
    02:00 +14°C° 0 mm 3 m/s 755 mmHg 70%
    03:00 +14°C° 0 mm 4 m/s 754 mmHg 69%
    04:00 +14°C° 0 mm 4 m/s 754 mmHg 68%
    05:00 +13°C° 0 mm 4 m/s 754 mmHg 68%
    06:00 +13°C° 0 mm 4 m/s 754 mmHg 68%
    07:00 +13°C° 0 mm 4 m/s 754 mmHg 68%
    08:00 +14°C° 0 mm 4 m/s 754 mmHg 65%
    09:00 +15°C° 0 mm 4 m/s 754 mmHg 63%
    10:00 +17°C° 0 mm 4 m/s 755 mmHg 61%
    11:00 +17°C° 0 mm 4 m/s 755 mmHg 64%
    12:00 +17°C° 0 mm 4 m/s 755 mmHg 67%
    13:00 +15°C° 0 mm 5 m/s 755 mmHg 69%
    14:00 +15°C° 0 mm 4 m/s 755 mmHg 67%
    15:00 +15°C° 0 mm 4 m/s 755 mmHg 64%
    16:00 +15°C° 0 mm 4 m/s 755 mmHg 62%
    17:00 +14°C° 0 mm 4 m/s 755 mmHg 63%
    18:00 +12°C° 0 mm 3 m/s 756 mmHg 65%
    19:00 +12°C° 0 mm 2 m/s 756 mmHg 67%
    20:00 +12°C° 0 mm 2 m/s 756 mmHg 67%
    21:00 +12°C° 0 mm 2 m/s 757 mmHg 68%
    22:00 +10°C° 0 mm 2 m/s 757 mmHg 68%
    23:00 +10°C° 0 mm 2 m/s 757 mmHg 71%

    29 Septembre, Samedi

    Heure Température Précipitation Vent Pression Humidité
    00:00 +9°C° 0 mm 2 m/s 758 mmHg 73%
    01:00 +9°C° 0 mm 3 m/s 758 mmHg 76%
    02:00 +8°C° 0 mm 3 m/s 758 mmHg 80%
    03:00 +8°C° 0 mm 3 m/s 758 mmHg 84%
    04:00 +7°C° 0 mm 3 m/s 759 mmHg 88%
    05:00 +7°C° 0 mm 3 m/s 759 mmHg 87%
    06:00 +7°C° 0 mm 3 m/s 760 mmHg 86%
    07:00 +7°C° 0 mm 3 m/s 760 mmHg 85%
    08:00 +9°C° 0 mm 3 m/s 760 mmHg 76%
    09:00 +10°C° 0 mm 3 m/s 761 mmHg 68%
    10:00 +12°C° 0 mm 3 m/s 761 mmHg 59%
    11:00 +12°C° 0.1 mm 3 m/s 761 mmHg 54%
    12:00 +13°C° 0.1 mm 3 m/s 761 mmHg 49%
    13:00 +14°C° 0.1 mm 3 m/s 761 mmHg 44%
    14:00 +15°C° 0 mm 2 m/s 761 mmHg 45%
    15:00 +15°C° 0 mm 2 m/s 761 mmHg 45%
    16:00 +14°C° 0 mm 2 m/s 761 mmHg 45%
    17:00 +13°C° 0 mm 1 m/s 761 mmHg 48%
    18:00 +12°C° 0 mm 1 m/s 761 mmHg 51%
    19:00 +10°C° 0 mm 0 m/s 762 mmHg 54%
    20:00 +11°C° 0 mm 1 m/s 762 mmHg 56%
    21:00 +10°C° 0 mm 1 m/s 762 mmHg 57%
    22:00 +9°C° 0 mm 1 m/s 762 mmHg 59%
    23:00 +9°C° 0 mm 1 m/s 762 mmHg 60%

    30 Septembre, Dimanche

    Heure Température Précipitation Vent Pression Humidité
    00:00 +9°C° 0 mm 1 m/s 762 mmHg 61%
    01:00 +8°C° 0 mm 1 m/s 762 mmHg 63%
    02:00 +8°C° 0 mm 1 m/s 762 mmHg 64%
    03:00 +8°C° 0 mm 1 m/s 761 mmHg 64%
    04:00 +7°C° 0 mm 1 m/s 761 mmHg 65%
    05:00 +7°C° 0 mm 2 m/s 761 mmHg 65%
    06:00 +7°C° 0 mm 2 m/s 761 mmHg 64%
    07:00 +7°C° 0 mm 2 m/s 761 mmHg 64%
    08:00 +9°C° 0 mm 2 m/s 760 mmHg 57%
    09:00 +11°C° 0 mm 3 m/s 760 mmHg 50%
    10:00 +13°C° 0 mm 3 m/s 760 mmHg 43%
    11:00 +13°C° 0 mm 3 m/s 759 mmHg 41%
    12:00 +14°C° 0 mm 3 m/s 759 mmHg 38%
    13:00 +16°C° 0 mm 3 m/s 758 mmHg 36%
    14:00 +16°C° 0 mm 3 m/s 758 mmHg 37%
    15:00 +16°C° 0 mm 3 m/s 757 mmHg 38%
    16:00 +14°C° 0 mm 3 m/s 756 mmHg 40%
    17:00 +13°C° 0 mm 3 m/s 756 mmHg 44%
    18:00 +11°C° 0 mm 3 m/s 756 mmHg 47%
    19:00 +10°C° 0 mm 2 m/s 756 mmHg 51%
    20:00 +9°C° 0 mm 2 m/s 755 mmHg 53%
    21:00 +9°C° 0 mm 2 m/s 755 mmHg 54%
    22:00 +8°C° 0 mm 2 m/s 755 mmHg 56%
    23:00 +8°C° 0 mm 2 m/s 754 mmHg 57%

    1 Octobre, Lundi

    Heure Température Précipitation Vent Pression Humidité
    00:00 +8°C° 0 mm 2 m/s 754 mmHg 58%
    01:00 +7°C° 0 mm 2 m/s 753 mmHg 59%
    02:00 +7°C° 0 mm 2 m/s 753 mmHg 59%
    03:00 +7°C° 0 mm 2 m/s 752 mmHg 60%
    04:00 +6°C° 0 mm 2 m/s 752 mmHg 61%
    05:00 +7°C° 0 mm 2 m/s 751 mmHg 62%
    06:00 +7°C° 0 mm 2 m/s 751 mmHg 63%
    07:00 +7°C° 0 mm 2 m/s 751 mmHg 65%
    08:00 +9°C° 0 mm 2 m/s 751 mmHg 60%
    09:00 +12°C° 0 mm 3 m/s 750 mmHg 56%
    10:00 +14°C° 0 mm 3 m/s 750 mmHg 52%
    11:00 +16°C° 0 mm 3 m/s 750 mmHg 48%
    12:00 +16°C° 0 mm 3 m/s 749 mmHg 45%
    13:00 +17°C° 0 mm 3 m/s 749 mmHg 41%
    14:00 +17°C° 0 mm 3 m/s 749 mmHg 42%
    15:00 +17°C° 0 mm 3 m/s 749 mmHg 43%
    16:00 +16°C° 0 mm 3 m/s 749 mmHg 44%
    17:00 +14°C° 0 mm 3 m/s 749 mmHg 48%
    18:00 +12°C° 0 mm 3 m/s 750 mmHg 52%
    19:00 +12°C° 0 mm 2 m/s 750 mmHg 57%
    20:00 +10°C° 0 mm 2 m/s 751 mmHg 58%
    21:00 +10°C° 0 mm 3 m/s 751 mmHg 60%
    22:00 +10°C° 0 mm 3 m/s 751 mmHg 62%
    23:00 +9°C° 0 mm 3 m/s 751 mmHg 66%
    Voir plus